Flag for Morocco Weather past 2 weeks in Marrakech, Morocco

Now
73 °F

Passing clouds.


Feels Like: 77 °F
Forecast: 61 / 89 °F
Wind: 3 mph from Southwest

Location: Marrakech Airport

Current Time: Sep 5, 2015 at 11:23:28 AM

Latest Report: Sep 5, 2015 at 11:00 AM


Visibility: N/A

Pressure: 30.07 "Hg

Humidity: 57%

Dew point: 57 °F

Location of MarrakechLocation

Historic Weather in Marrakech — Graph

°F

Marrakech temperature yesterday

Maximum temperature yesterday: 86 °F (at 4:00 PM)
Minimum temperature yesterday: 63 °F (at 5:30 AM)
Average temperature yesterday: 73 °F

Past Weeks' High & Low Weather Summary

 TemperatureHumidityPressure
High99 °F (Aug 29, 2:30 PM)94% (Aug 22, 8:00 AM)30.12 "Hg (Aug 22, 8:00 AM)
Low61 °F (Sep 5, 7:00 AM)23% (Aug 21, 4:30 PM)29.86 "Hg (Aug 29, 5:00 AM)
Average79 °F59%30.02 "Hg
* Reported Aug 21 10:00 AM — Sep 5 10:00 AM, Marrakech, Weather by CustomWeather, © 2015

Note: Actual official high and low records may vary slightly from our data, if they occured in-between our weather recording intervals... More about our weather records

Advertising

Marrakech weather history for previous 24 hours

 ConditionsComfort  
Time TempWeatherWind HumidityBarometerVisibility
10:00 AM
Sat, Sep 5
72 °FSunny.No wind61%30.04 "Hg10 mi
9:30 AM68 °FPassing clouds.3 mph69%30.04 "HgN/A
9:00 AM66 °FPassing clouds.5 mph73%30.04 "HgN/A
8:30 AM64 °FPassing clouds.5 mph78%30.04 "HgN/A
8:00 AM63 °FPassing clouds.3 mph83%30.01 "HgN/A
7:30 AM61 °FSunny.5 mph83%30.01 "Hg10 mi
7:00 AM61 °FClear.3 mph83%30.01 "Hg10 mi
6:30 AM64 °FClear.No wind78%30.01 "Hg10 mi
6:00 AM64 °FClear.2 mph78%29.98 "Hg10 mi
5:30 AM66 °FClear.3 mph73%29.98 "Hg10 mi
5:00 AM66 °FClear.3 mph73%29.98 "Hg10 mi
4:30 AM66 °FMild.3 mph73%30.01 "HgN/A
4:00 AM66 °FClear.3 mph73%30.01 "Hg10 mi
3:30 AM66 °FClear.6 mph68%30.01 "Hg10 mi
3:00 AM66 °FClear.5 mph73%30.01 "Hg10 mi
2:30 AM68 °FClear.6 mph69%30.01 "Hg10 mi
2:00 AM68 °FClear.5 mph64%30.01 "Hg10 mi
1:30 AM68 °FClear.5 mph69%30.04 "Hg10 mi
1:00 AM68 °FClear.6 mph64%30.04 "Hg10 mi
12:30 AM70 °FClear.9 mph60%30.04 "Hg10 mi
12:00 AM70 °FClear.8 mph60%30.04 "Hg10 mi
11:30 PM
Fri, Sep 4
72 °FClear.10 mph57%30.04 "Hg10 mi
11:00 PM72 °FClear.10 mph61%30.04 "Hg5 mi
10:30 PM73 °FClear.10 mph53%30.04 "Hg5 mi
10:00 PM75 °FPassing clouds.14 mph54%30.04 "HgN/A
9:30 PM77 °FPassing clouds.12 mph51%30.04 "HgN/A
9:00 PM79 °FPassing clouds.13 mph45%30.01 "HgN/A
8:30 PM82 °FClear.10 mph35%29.98 "Hg10 mi
8:00 PM84 °FClear.9 mph31%29.98 "Hg10 mi
7:30 PM84 °FPassing clouds.9 mph29%29.98 "HgN/A
7:00 PM86 °FPassing clouds.5 mph29%29.98 "HgN/A
6:30 PM86 °FPassing clouds.7 mph29%29.98 "HgN/A
6:00 PM86 °FPassing clouds.7 mph31%29.98 "HgN/A
5:30 PM86 °FClear.5 mph31%29.98 "Hg4 mi
5:00 PM86 °FClear.3 mph33%29.98 "Hg5 mi
4:30 PM86 °FPassing clouds.8 mph35%30.01 "HgN/A
4:00 PM86 °FClear.9 mph35%30.01 "Hg6 mi
3:30 PM84 °FPassing clouds.6 mph40%30.01 "HgN/A
3:00 PM82 °FPassing clouds.7 mph42%30.01 "HgN/A
2:30 PM82 °FPassing clouds.6 mph42%30.01 "HgN/A
2:00 PM81 °FSunny.6 mph45%30.04 "Hg10 mi
1:30 PM79 °FPassing clouds.7 mph48%30.04 "HgN/A
1:00 PM77 °FPassing clouds.5 mph51%30.04 "HgN/A
12:30 PM75 °FPassing clouds.6 mph54%30.07 "HgN/A
12:00 PM73 °FPassing clouds.5 mph57%30.07 "HgN/A
11:30 AM73 °FPassing clouds.6 mph53%30.09 "HgN/A
11:00 AM72 °FPassing clouds.5 mph57%30.09 "HgN/A
Weather by CustomWeather, © 2015

See weather overviewHow to use our weather pages